User: anonymous   Login
Location: Unspecified
(0.0000°N, 0.0000°E)
Time: 11:52:37
(UTC+02:00)
Language:

Iridium 4 Rocket - Orbit

View from above orbital plane
View from above orbital plane
View from above satellite
View from above satellite

Ground track
Ground track

The orbit data is extracted from the following two-line orbital elements,

1 24797U 97020F   16239.54781987  .00000108  00000-0  18193-4 0  9992
2 24797  86.8933 101.3102 0224182 219.2367 201.5369 14.43893999 15422
Epoch (UTC): 26 August 2016 13:08:51
Eccentricity: 0.0224182
inclination: 86.8933°
perigee height: 586 km
apogee height: 905 km
right ascension of ascending node: 101.3102°
argument of perigee: 219.2367°
revolutions per day: 14.43893999
mean anomaly at epoch: 201.5369°
orbit number at epoch: 1542

The dashed part of the orbit path shows where the satellite is in the earth's shadow,  

DLR